Hourly Data Report for September 02, 2017

All times are specified in Local Standard Time (LST). Add 1 hour to adjust for Daylight Saving Time where and when it is observed.

OTTAWA INTL A
ONTARIO

45°19'00.000" N
75°40'00.000" W
114.90 m
6106001
71628
YOW

Download Data

Hourly Data (September 2017)
Hourly Data Report for September 2, 2017
Temp Definition
°C
Dew Point Temp Definition
°C
Rel Hum Definition
%
Wind Dir Definition
10's deg

Wind Spd Definition
km/h
Visibility Definition
km
Stn Press Definition
kPa
Hmdx Definition


Wind Chill Definition


Weather Definition


TIME
00:00 Legend Double Dagger 5.9 4.1 88 29 7 24.1 100.95     LegendNANA
01:00 Legend Double Dagger 7.6 5.6 87 31 7 24.1 100.97     Clear
02:00 Legend Double Dagger 6.7 5.4 91 26 6 24.1 100.98     LegendNANA
03:00 Legend Double Dagger 6.2 5.3 94 25 6 24.1 100.96     LegendNANA
04:00 Legend Double Dagger 4.4 4.0 98 24 8 24.1 100.99     Clear
05:00 Legend Double Dagger 5.7 5.0 95 29 8 24.1 101.03     LegendNANA
06:00 Legend Double Dagger 6.3 5.9 97 36 2 24.1 101.02     LegendNANA
07:00 Legend Double Dagger 7.1 6.4 95 23 4 24.1 101.04     Mainly Clear
08:00 Legend Double Dagger 12.1 7.8 75 33 4 24.1 101.07     LegendNANA
09:00 Legend Double Dagger 14.7 6.7 58 19 6 24.1 101.04     LegendNANA
10:00 Legend Double Dagger 15.6 5.2 50 15 3 24.1 101.05     Mainly Clear
11:00 Legend Double Dagger 16.9 5.4 46 24 5 24.1 100.99     LegendNANA
12:00 Legend Double Dagger 18.4 6.5 46 24 10 24.1 100.94     LegendNANA
13:00 Legend Double Dagger 19.0 5.2 40 6 9 24.1 100.89     Mainly Clear
14:00 Legend Double Dagger 19.8 4.6 36 13 13 24.1 100.78     LegendNANA
15:00 Legend Double Dagger 20.1 5.4 38 16 18 24.1 100.73     LegendNANA
16:00 Legend Double Dagger 19.6 6.1 41 9 10 24.1 100.65     Mainly Clear
17:00 Legend Double Dagger 19.1 6.7 44 8 14 24.1 100.61     LegendNANA
18:00 Legend Double Dagger 16.4 7.5 55 12 8 24.1 100.60     LegendNANA
19:00 Legend Double Dagger 14.6 7.4 62 7 9 24.1 100.58     Mainly Clear
20:00 Legend Double Dagger 13.6 6.6 62 9 12 24.1 100.55     LegendNANA
21:00 Legend Double Dagger 13.2 6.5 64 8 15 24.1 100.51     LegendNANA
22:00 Legend Double Dagger 12.7 6.5 66 8 17 24.1 100.46     Mostly Cloudy
23:00 Legend Double Dagger 11.4 6.7 73 9 14 24.1 100.42     LegendNANA

Notes on Data Quality.

Legend

  • E = Estimated
  • M = Missing
  • NA = Not Available
  • ‡ = Partner data that is not subject to review by the National Climate Archives
Date modified: